NOAA 15 1 25338U 98030A 25111.16738730 .00000346 00000-0 15998-3 0 9994 2 25338 98.5399 137.4782 0011130 139.4635 220.7377 14.26946695401358 METEOSAT 8 (MSG 1) 1 27509U 02040B 25110.92502478 -.00000011 00000-0 00000+0 0 9997 2 27509 10.4229 44.4809 0014888 62.2545 148.0232 0.97902270 82797 KALPANA 1 (METSAT 1) 1 27525U 02043A 25110.83140153 .00000014 00000-0 00000-0 0 9999 2 27525 12.3580 35.6519 0005614 128.2884 51.0454 0.98336359 82331 NOAA 18 1 28654U 05018A 25111.21690377 .00000348 00000-0 20812-3 0 9995 2 28654 98.8425 191.2470 0013059 268.7728 91.1948 14.13580240 26777 METEOSAT 9 (MSG 2) 1 28912U 05049B 25110.89873382 .00000133 00000-0 00000-0 0 9994 2 28912 8.3972 58.1616 0001124 1.8575 158.4005 1.00271875 2774 HIMAWARI 7 1 28937U 06004A 25110.81067131 -.00000229 00000-0 00000-0 0 9999 2 28937 4.6939 78.1149 0006001 165.7440 219.2322 0.99078407 70042 FORMOSAT 3A 1 29047U 06011A 25111.20368761 .00000770 00000-0 30483-3 0 9998 2 29047 71.9751 96.1070 0050817 249.0833 110.4861 14.30895660994068 FORMOSAT 3B 1 29048U 06011B 25110.70512544 .00000776 00000-0 30838-3 0 9993 2 29048 71.9683 6.0387 0043560 212.7389 147.1048 14.30885211996421 FORMOSAT 3C 1 29049U 06011C 25110.48139892 .00000829 00000-0 32914-3 0 9996 2 29049 72.0193 188.1957 0035445 224.2408 135.5895 14.30913599992190 FORMOSAT 3D 1 29050U 06011D 25111.18621729 .00002638 00000-0 49068-3 0 9999 2 29050 72.0133 145.4386 0045457 338.6579 21.2679 14.65300793 14685 FORMOSAT 3E 1 29051U 06011E 25110.89887431 .00000938 00000-0 36352-3 0 9994 2 29051 72.0022 85.8205 0064441 104.2675 256.5631 14.31024266994845 FORMOSAT 3F 1 29052U 06011F 25110.64142251 .00000706 00000-0 28079-3 0 9992 2 29052 72.0323 165.8892 0039065 179.3481 180.7715 14.31115759992312 GOES 13 1 29155U 06018A 25110.91749999 -.00000250 00000-0 00000-0 0 9991 2 29155 3.4316 81.5553 0065213 264.6209 334.4714 0.98833199 39079 METOP-A 1 29499U 06044A 25110.94380906 .00002167 00000-0 26414-3 0 9991 2 29499 98.3284 200.3211 0179132 333.9877 112.9014 14.73801199963213 FENGYUN 2D 1 29640U 06053A 25111.08169834 -.00000178 00000-0 00000+0 0 9990 2 29640 10.1627 44.1717 0009984 26.9445 163.0949 0.98194626 66845 FENGYUN 3A 1 32958U 08026A 25110.83012365 .00000279 00000-0 15293-3 0 9991 2 32958 98.6441 55.7387 0007539 265.3031 94.7284 14.19423578875480 FENGYUN 2E 1 33463U 08066A 25110.45622022 .00000065 00000-0 00000-0 0 9992 2 33463 8.2967 58.0473 0000893 20.4667 154.4273 0.99119947 59813 NOAA 19 1 33591U 09005A 25111.14453435 .00000280 00000-0 17318-3 0 9997 2 33591 99.0006 175.5642 0014578 140.7803 219.4428 14.13344688835126 GOES 14 1 35491U 09033A 25110.58254671 -.00000062 00000-0 00000-0 0 9993 2 35491 0.5847 88.6067 0000676 28.4363 193.2526 1.00270786 2357 METEOR-M 1 35865U 09049A 25110.86563436 .00000236 00000-0 12432-3 0 9995 2 35865 98.6812 72.8968 0003409 90.6829 269.4740 14.23003152809182 GOES 15 1 36411U 10008A 25110.90600193 .00000041 00000-0 00000-0 0 9996 2 36411 0.1792 86.1056 0001771 192.5050 318.1853 1.00274594 55405 COMS 1 1 36744U 10032A 25110.97100003 -.00000338 00000-0 00000+0 0 9993 2 36744 3.7219 80.6999 0001028 308.2771 298.0300 1.00271843 54421 FENGYUN 3B 1 37214U 10059A 25111.23899633 .00000165 00000-0 10918-3 0 9999 2 37214 99.0183 149.1341 0021155 303.2408 129.9942 14.14715790747807 NPP 1 37849U 11061A 25111.13140736 .00000177 00000-0 10468-3 0 9992 2 37849 98.7547 50.9538 0002535 91.2116 268.9350 14.19521724698550 FENGYUN 2F 1 38049U 12002A 25111.15221538 .00000083 00000-0 00000+0 0 9996 2 38049 6.5139 70.8079 0001125 180.3024 239.4676 0.99136336 48614 METEOSAT 10 (MSG 3) 1 38552U 12035B 25110.74691109 .00000002 00000-0 00000-0 0 9992 2 38552 3.6730 62.0412 0000794 344.5923 71.8074 1.00265061 46625 METOP-B 1 38771U 12049A 25111.19570287 .00000244 00000-0 13091-3 0 9998 2 38771 98.5817 166.7902 0001899 115.4863 244.6512 14.21481761653308 FENGYUN 3C 1 39260U 13052A 25111.24246486 .00000232 00000-0 13912-3 0 9993 2 39260 98.4530 100.7522 0015158 154.1660 206.0275 14.15608533598933 METEOR M2 1 40069U 14037A 25111.20053363 .00000301 00000-0 15710-3 0 9997 2 40069 98.4661 98.1622 0005756 170.8029 189.3255 14.21275392559371 HIMAWARI 8 1 40267U 14060A 25110.91749999 -.00000271 00000-0 00000-0 0 9997 2 40267 0.0372 57.9551 0000533 2.3596 259.8962 1.00273666 38510 FENGYUN 2G 1 40367U 14090A 25110.90933323 -.00000291 00000-0 00000-0 0 9998 2 40367 4.5657 77.9259 0002126 108.8198 89.0616 1.00263476 37766 METEOSAT 11 (MSG 4) 1 40732U 15034A 25111.17713223 .00000071 00000-0 00000+0 0 9992 2 40732 2.1474 72.2569 0000887 325.9121 244.6561 1.00280207 35784 ELEKTRO-L 2 1 41105U 15074A 25110.74395716 -.00000108 00000-0 00000-0 0 9999 2 41105 5.6259 75.7104 0001959 240.2436 146.4704 1.00272441 34272 HIMAWARI 9 1 41836U 16064A 25110.91749999 -.00000271 00000-0 00000-0 0 9996 2 41836 0.0400 92.0724 0001416 334.0389 254.2031 1.00270226 30970 GOES 16 1 41866U 16071A 25111.16225476 -.00000207 00000-0 00000+0 0 9992 2 41866 0.0561 280.2901 0000943 179.9214 87.0863 1.00131177 30860 CYGFM05 1 41884U 16078A 25110.41149727 .00020002 00000-0 50063-3 0 9992 2 41884 34.9598 139.4599 0009594 149.5353 210.5924 15.39128951463248 CYGFM04 1 41885U 16078B 25110.43175918 .00021735 00000-0 51552-3 0 9994 2 41885 34.9353 119.4438 0009042 173.5495 186.5341 15.40746849463373 CYGFM02 1 41886U 16078C 25111.17705792 .00020085 00000-0 46118-3 0 9995 2 41886 34.9443 115.2780 0010879 171.7998 188.2901 15.41711250463668 CYGFM01 1 41887U 16078D 25110.47545989 .00019536 00000-0 48323-3 0 9997 2 41887 34.9432 142.7942 0008897 137.3625 222.7786 15.39496482463180 CYGFM08 1 41888U 16078E 25111.20253135 .00019007 00000-0 45656-3 0 9998 2 41888 34.9465 123.3397 0011394 167.1424 192.9587 15.40359249463537 CYGFM07 1 41890U 16078G 25110.38633004 .00021414 00000-0 50609-3 0 9995 2 41890 34.9483 118.9055 0009626 178.0592 182.0165 15.40851089463387 CYGFM03 1 41891U 16078H 25111.16217510 .00019200 00000-0 45684-3 0 9990 2 41891 34.9437 115.4184 0008417 171.8425 188.2432 15.40676074463637